Location: Malvern Link
(52.1333°N, 2.3000°W)
Time: 14:04:54
(UTC+00:00)

SO-50 - Pass Details

Date: 10 July 2022
Orbit: 585 x 698 km, 64.6° (Epoch: 11 August)

Event Time Altitude Azimuth Distance (km) Brightness Sun altitude
Rises 00:37:29 0° 264° (W) 3,006 ? -15.4°
Reaches altitude 10° 00:40:04 10° 276° (W) 2,113 ? -15.4°
Maximum altitude 00:44:14 28° 336° (NNW) 1,287 ? -15.3°
Drops below altitude 10° 00:48:28 10° 35° (NE) 2,160 ? -15.2°
Sets 00:51:09 0° 47° (NE) 3,086 ? -15.2°
